Timestamp,Temp,Chill,HIndex,Humid,Dewpt,Wind,HiWind,WindDir,Rain,RainRate,Barom,Solar,ET,UV,InsideTemp,InsideHumid
2015-07-23 00:00:00,53.3,53.3,53.3,79,46.9550219238049,1,6,180,0,0,29.727,0,0.001,0,72.4,45
2015-07-23 00:05:00,53.2,53.2,53.2,79,46.857826926911,0,5,0,0,0,29.727,0,0,0,72.4,45
2015-07-23 00:10:00,53.2,53.2,53.2,79,46.857826926911,1,5,180,0,0,29.728,0,0,0,72.4,45
2015-07-23 00:15:00,53.1,53.1,53.1,79,46.7606313186464,0,2,0,0,0,29.727,0,0,0,72.4,45
2015-07-23 00:20:00,53,53,53,79,46.6634350990054,0,0,0,0,0,29.726,0,0,0,72.4,45
2015-07-23 00:25:00,52.9,52.9,52.9,79,46.5662382679821,0,0,0,0,0,29.726,0,0,0,72.4,45
2015-07-23 00:30:00,52.8,52.8,52.8,79,46.4690408255708,0,0,0,0,0,29.727,0,0,0,72.4,45
2015-07-23 00:35:00,52.7,52.7,52.7,80,46.7050172036006,0,4,0,0,0,29.726,0,0,0,72.4,45
2015-07-23 00:40:00,52.6,52.6,52.6,80,46.6076720417322,1,6,180,0,0,29.726,0,0,0,72.4,45
2015-07-23 00:45:00,52.6,52.6,52.6,80,46.6076720417322,0,3,0,0,0,29.727,0,0,0,72.4,45
2015-07-23 00:50:00,52.5,52.5,52.5,80,46.5103262997759,0,0,0,0,0,29.726,0,0,0,72.4,45
2015-07-23 00:55:00,52.4,52.4,52.4,80,46.4129799777265,0,0,0,0,0,29.725,0,0,0,72.4,45
2015-07-23 01:00:00,52.4,52.4,52.4,80,46.4129799777265,0,2,0,0,0,29.726,0,0.001,0,72.4,45
2015-07-23 01:05:00,52.4,52.4,52.4,81,46.7420736501634,2,6,180,0,0,29.727,0,0,0,72.4,45
2015-07-23 01:10:00,52.5,52.5,52.5,81,46.8395649121477,0,2,0,0,0,29.727,0,0,0,72.4,45
2015-07-23 01:15:00,52.5,52.5,52.5,81,46.8395649121477,0,4,0,0,0,29.722,0,0,0,72.4,45
2015-07-23 01:20:00,52.5,52.5,52.5,81,46.8395649121477,0,2,0,0,0,29.725,0,0,0,72.4,45
2015-07-23 01:25:00,52.5,52.5,52.5,81,46.8395649121477,0,3,0,0,0,29.721,0,0,0,72.4,45
2015-07-23 01:30:00,52.6,52.6,52.6,81,46.937055625109,1,4,180,0,0,29.72,0,0,0,72.4,45
2015-07-23 01:35:00,52.6,52.6,52.6,81,46.937055625109,0,4,0,0,0,29.722,0,0,0,72.4,45
2015-07-23 01:40:00,52.6,52.6,52.6,81,46.937055625109,1,6,180,0,0,29.721,0,0,0,72.4,45
2015-07-23 01:45:00,52.6,52.6,52.6,82,47.2628793573373,1,5,180,0,0,29.72,0,0,0,72.4,45
2015-07-23 01:50:00,52.6,52.6,52.6,82,47.2628793573373,1,5,180,0,0,29.723,0,0,0,72.4,45
2015-07-23 01:55:00,52.5,52.5,52.5,82,47.1652451340598,1,3,180,0,0,29.721,0,0,0,72.4,45
2015-07-23 02:00:00,52.5,52.5,52.5,82,47.1652451340598,0,1,0,0,0,29.717,0,0.001,0,72.4,45
2015-07-23 02:05:00,52.4,52.4,52.4,82,47.0676103925864,0,1,0,0,0,29.72,0,0,0,72.4,45
2015-07-23 02:10:00,52.4,52.4,52.4,82,47.0676103925864,0,1,0,0,0,29.718,0,0,0,72.4,45
2015-07-23 02:15:00,52.3,52.3,52.3,82,46.9699751329129,0,0,0,0,0,29.718,0,0,0,72.4,45
2015-07-23 02:20:00,52.3,52.3,52.3,82,46.9699751329129,1,5,180,0,0,29.718,0,0,0,72.4,45
2015-07-23 02:25:00,52.2,52.2,52.2,82,46.8723393550354,0,2,0,0,0,29.718,0,0,0,72.4,45
2015-07-23 02:30:00,52.2,52.2,52.2,82,46.8723393550354,0,3,0,0,0,29.718,0,0,0,72.4,45
2015-07-23 02:35:00,52.2,52.2,52.2,83,47.1941166280232,0,3,0,0,0,29.716,0,0,0,72.4,45
2015-07-23 02:40:00,52.2,52.2,52.2,83,47.1941166280232,0,1,0,0,0,29.718,0,0,0,72.4,45
2015-07-23 02:45:00,52.1,52.1,52.1,83,47.0963383721751,0,1,0,0,0,29.717,0,0,0,72.4,45
2015-07-23 02:50:00,52.1,52.1,52.1,83,47.0963383721751,0,0,0,0,0,29.715,0,0,0,72.4,45
2015-07-23 02:55:00,52,52,52,83,46.9985596287056,0,1,0,0,0,29.715,0,0,0,72.4,45
2015-07-23 03:00:00,51.9,51.9,51.9,83,46.900780397611,0,6,0,0,0,29.717,0,0.001,0,72.4,45
2015-07-23 03:05:00,52,52,52,83,46.9985596287056,2,6,157.5,0,0,29.718,0,0,0,72.4,46
2015-07-23 03:10:00,52,52,52,83,46.9985596287056,0,4,0,0,0,29.718,0,0,0,72.4,46
2015-07-23 03:15:00,52,52,52,83,46.9985596287056,2,5,157.5,0,0,29.717,0,0,0,72.4,46
2015-07-23 03:20:00,52,52,52,84,47.3166617871714,1,4,157.5,0,0,29.716,0,0,0,72.4,46
2015-07-23 03:25:00,52,52,52,84,47.3166617871714,0,1,0,0,0,29.714,0,0,0,72.4,46
2015-07-23 03:30:00,52.1,52.1,52.1,84,47.4145810641726,0,2,0,0,0,29.717,0,0,0,72.4,46
2015-07-23 03:35:00,52.3,52.3,52.3,84,47.610418246386,2,7,202.5,0,0,29.715,0,0,0,72.4,46
2015-07-23 03:40:00,52.5,52.5,52.5,85,48.1217365089572,2,9,202.5,0,0,29.718,0,0,0,72.3,45
2015-07-23 03:45:00,52.8,52.8,52.8,85,48.4159041562516,1,5,202.5,0,0,29.717,0,0,0,72.3,46
2015-07-23 03:50:00,53,53,53,85,48.6120137855284,1,6,225,0,0,29.72,0,0,0,72.3,46
2015-07-23 03:55:00,53.1,53.1,53.1,85,48.7100679594993,1,5,202.5,0,0,29.721,0,0,0,72.3,46
2015-07-23 04:00:00,53.3,53.3,53.3,85,48.9061750261201,1,8,202.5,0,0,29.72,0,0.001,0,72.3,46
2015-07-23 04:05:00,53.4,53.4,53.4,85,49.0042279187756,1,4,202.5,0,0,29.721,0,0,0,72.3,46
2015-07-23 04:10:00,53.5,53.5,53.5,85,49.1022803843315,1,6,202.5,0,0,29.721,0,0,0,72.3,46
2015-07-23 04:15:00,53.6,53.6,53.6,85,49.2003324227907,1,5,202.5,0,0,29.721,0,0,0,72.3,46
2015-07-23 04:20:00,53.7,53.7,53.7,84,48.9812273104489,2,9,225,0,0,29.721,0,0,0,72.3,46
2015-07-23 04:25:00,53.7,53.7,53.7,84,48.9812273104489,2,7,225,0,0,29.721,0,0,0,72.3,46
2015-07-23 04:30:00,53.8,53.8,53.8,84,49.0791388143955,4,8,202.5,0,0,29.72,0,0,0,72.3,46
2015-07-23 04:35:00,53.9,53.9,53.9,84,49.1770498611325,5,9,202.5,0,0,29.722,3,0,0,72.3,46
2015-07-23 04:40:00,54,54,54,84,49.2749604506629,4,8,202.5,0,0,29.722,7,0,0,72.3,46
2015-07-23 04:45:00,54.1,54.1,54.1,83,49.0518108459062,4,9,225,0,0,29.723,12,0,0,72.3,46
2015-07-23 04:50:00,54.1,54.1,54.1,83,49.0518108459062,4,10,225,0,0,29.725,12,0,0,72.3,46
2015-07-23 04:55:00,54.1,54.1,54.1,83,49.0518108459062,4,8,202.5,0,0,29.724,15,0,0,72.3,46
2015-07-23 05:00:00,54.2,54.2,54.2,83,49.1495793500906,4,7,202.5,0,0,29.724,19,0.001,0,72.3,46
2015-07-23 05:05:00,54.2,54.2,54.2,83,49.1495793500906,5,10,202.5,0,0,29.724,25,0,0,72.3,46
2015-07-23 05:10:00,54.3,54.3,54.3,83,49.2473473667302,5,9,202.5,0,0,29.727,32,0,0,72.1,46
2015-07-23 05:15:00,54.4,54.4,54.4,83,49.3451148958285,5,9,202.5,0,0,29.726,36,0,0,71.6,46
2015-07-23 05:20:00,54.5,54.5,54.5,83,49.4428819373892,2,7,202.5,0,0,29.73,34,0,0,71.2,47
2015-07-23 05:25:00,54.6,54.6,54.6,83,49.540648491416,4,8,202.5,0,0,29.729,48,0,0,70.9,47
2015-07-23 05:30:00,54.7,54.7,54.7,83,49.6384145579125,3,7,202.5,0,0,29.731,49,0,0,70.7,47
2015-07-23 05:35:00,54.8,54.8,54.8,83,49.7361801368823,3,7,202.5,0,0,29.73,52,0,0,70.6,48
2015-07-23 05:40:00,54.9,54.9,54.9,83,49.8339452283291,4,7,202.5,0,0,29.733,54,0,0,70.4,48
2015-07-23 05:45:00,54.9,54.9,54.9,83,49.8339452283291,3,7,225,0,0,29.728,59,0,0,70.2,48
2015-07-23 05:50:00,55,55,55,83,49.9317098322566,3,7,202.5,0,0,29.732,71,0,0,70.1,49
2015-07-23 05:55:00,55.1,55.1,55.1,83,50.0294739486684,4,9,202.5,0,0,29.73,73,0,0,69.9,49
2015-07-23 06:00:00,55.2,55.2,55.2,82,49.8011872893063,5,10,225,0,0,29.73,85,0.002,0,69.7,49
2015-07-23 06:05:00,55.3,55.3,55.3,82,49.8988075228539,4,9,202.5,0,0,29.731,87,0,0,69.6,49
2015-07-23 06:10:00,55.4,55.4,55.4,82,49.996427238321,5,12,202.5,0,0,29.728,88,0,0,69.4,49
2015-07-23 06:15:00,55.5,55.5,55.5,81,49.7640474968159,4,7,202.5,0,0,29.728,79,0,0,69.2,49
2015-07-23 06:20:00,55.7,55.7,55.7,81,49.9589954367904,3,7,202.5,0,0,29.73,92,0,0,69.2,50
2015-07-23 06:25:00,55.8,55.8,55.8,81,50.0564685834633,3,12,180,0,0,29.73,120,0,0.1,69.2,49
2015-07-23 06:30:00,55.9,55.9,55.9,80,49.819756128001,4,11,202.5,0,0,29.731,144,0,0.3,69.4,49
2015-07-23 06:35:00,56.1,56.1,56.1,80,50.0144075918415,4,8,202.5,0,0,29.732,157,0,0.2,69.6,49
2015-07-23 06:40:00,56.2,56.2,56.2,79,49.7734109134022,3,9,202.5,0,0,29.734,131,0,0,69.6,49
2015-07-23 06:45:00,56.3,56.3,56.3,79,49.8705875718572,4,11,225,0,0,29.731,147,0,0.3,69.6,49
2015-07-23 06:50:00,56.4,56.4,56.4,78,49.6253565396554,2,7,225,0,0,29.732,170,0,0.6,69.6,49
2015-07-23 06:55:00,56.6,56.6,56.6,78,49.8194083183967,3,8,225,0,0,29.734,167,0,0.6,69.6,49
2015-07-23 07:00:00,56.7,56.7,56.7,78,49.9164332436838,3,9,225,0,0,29.733,180,0.003,0.6,69.6,49
2015-07-23 07:05:00,56.9,56.9,56.9,77,49.7634372489925,2,9,202.5,0,0,29.735,165,0,0.6,69.6,49
2015-07-23 07:10:00,57.1,57.1,57.1,77,49.9571806493214,3,13,225,0,0,29.736,190,0,0.7,69.7,49
2015-07-23 07:15:00,57.1,57.1,57.1,76,49.6058452279958,4,11,225,0,0,29.737,198,0,0.8,69.7,48
2015-07-23 07:20:00,57.3,57.3,57.3,75,49.4435473531148,3,8,225,0,0,29.734,201,0,0.9,69.7,48
2015-07-23 07:25:00,57.4,57.4,57.4,75,49.5401096331548,3,9,225,0,0,29.734,182,0,0.8,69.6,48
2015-07-23 07:30:00,57.5,57.5,57.5,74,49.2764296058028,3,10,202.5,0,0,29.733,189,0,0.9,69.4,48
2015-07-23 07:35:00,57.7,57.7,57.7,74,49.4692382040467,4,10,247.5,0,0,29.735,198,0,0.9,69,48
2015-07-23 07:40:00,57.8,57.8,57.8,73,49.2006187770088,4,10,270,0,0,29.733,219,0,1,69,48
2015-07-23 07:45:00,57.8,57.8,57.8,73,49.2006187770088,4,11,247.5,0,0,29.736,255,0,1.2,69,48
2015-07-23 07:50:00,58,58,58,72,49.0233399708083,3,8,270,0,0,29.739,236,0,1.2,68.9,48
2015-07-23 07:55:00,58.1,58.1,58.1,71,48.7449493503573,3,9,225,0,0,29.739,319,0,1.4,68.9,47
2015-07-23 08:00:00,58.4,58.4,58.4,71,49.0327082416558,4,11,180,0,0,29.739,271,0.005,1.2,68.9,48
2015-07-23 08:05:00,58.5,58.5,58.5,71,49.1286261303997,3,9,247.5,0,0,29.735,184,0,0.9,69.2,47
2015-07-23 08:10:00,58.6,58.6,58.6,70,48.8445828169528,4,11,247.5,0,0,29.735,119,0,0.9,69.4,47
2015-07-23 08:15:00,58.6,58.6,58.6,70,48.8445828169528,3,7,202.5,0,0,29.738,147,0,1.3,69.6,47
2015-07-23 08:20:00,59,59,59,70,49.2275871327665,5,11,225,0,0,29.739,700,0,2.6,69.9,47
2015-07-23 08:25:00,59.6,59.6,59.6,67,48.6277866667742,5,15,225,0,0,29.741,302,0,2,70.2,46
2015-07-23 08:30:00,59.3,59.3,59.3,67,48.3420622684403,5,10,202.5,0,0,29.739,188,0,0.8,70.4,45
2015-07-23 08:35:00,59,59,59,67,48.0563288022191,4,11,247.5,0,0,29.738,135,0,0.5,70.4,45
2015-07-23 08:40:00,59,59,59,67,48.0563288022191,4,11,225,0,0,29.738,126,0,0.5,70.2,45
2015-07-23 08:45:00,58.9,58.9,58.9,67,47.9610822983179,4,10,225,0,0,29.739,96,0,0,70.2,45
2015-07-23 08:50:00,58.5,58.5,58.5,67,47.5800862064835,5,12,270,0,0,29.742,63,0,0,70.2,45
2015-07-23 08:55:00,58.2,58.2,58.2,68,47.6884283317802,3,9,247.5,0,0,29.738,76,0,0,70.1,45
2015-07-23 09:00:00,58,58,58,69,47.8862769776951,2,10,202.5,0,0,29.737,80,0.005,0,70.1,45
2015-07-23 09:05:00,57.8,57.8,57.8,69,47.6950893046379,2,6,202.5,0,0,29.738,123,0,0.7,69.9,45
2015-07-23 09:10:00,57.8,57.8,57.8,70,48.0785307657233,3,12,225,0,0,29.739,160,0,1,69.9,45
2015-07-23 09:15:00,57.8,57.8,57.8,70,48.0785307657233,3,9,202.5,0,0,29.737,148,0,0.9,69.7,46
2015-07-23 09:20:00,57.8,57.8,57.8,71,48.4571826212101,3,7,157.5,0,0,29.74,128,0,0.7,69.6,46
2015-07-23 09:25:00,57.8,57.8,57.8,70,48.0785307657233,5,9,202.5,0,0,29.74,114,0,0.6,69.2,46
2015-07-23 09:30:00,57.8,57.8,57.8,70,48.0785307657233,5,11,202.5,0,0,29.739,158,0,1,69.2,46
2015-07-23 09:35:00,58,58,58,70,48.2700492062373,6,10,202.5,0,0,29.737,265,0,2.1,69.2,46
2015-07-23 09:40:00,58.8,58.8,58.8,68,48.2609521578349,4,11,202.5,0,0,29.736,449,0,3.2,69.4,46
2015-07-23 09:45:00,59.5,59.5,59.5,66,48.1310019233886,4,9,202.5,0,0,29.736,438,0,3.3,69.9,46
2015-07-23 09:50:00,60.2,60.2,60.2,65,48.3883053806902,3,8,202.5,0,0,29.737,403,0,3.1,70.2,45
2015-07-23 09:55:00,60.6,60.6,60.6,64,48.3534230554032,5,11,225,0,0,29.741,762,0,4.2,70.6,45
2015-07-23 10:00:00,61.2,61.2,61.2,62,48.0732478284314,5,12,247.5,0,0,29.74,417,0.007,2.5,70.6,44
2015-07-23 10:05:00,60.7,60.7,60.7,62,47.6015405656173,5,10,180,0,0,29.739,180,0,1,70.4,44
2015-07-23 10:10:00,60.3,60.3,60.3,63,47.6496778861891,4,9,225,0,0,29.74,145,0,0.7,70.4,44
2015-07-23 10:15:00,59.9,59.9,59.9,62,46.8467472881371,4,10,292.5,0,0,29.737,173,0,1,70.4,43
2015-07-23 10:20:00,59.9,59.9,59.9,61,46.4158737538585,4,11,225,0,0,29.742,253,0,1.7,70.2,43
2015-07-23 10:25:00,59.8,59.8,59.8,61,46.3217028140366,5,13,247.5,0,0,29.742,230,0,1.6,70.2,42
2015-07-23 10:30:00,59.8,59.8,59.8,61,46.3217028140366,4,11,225,0,0,29.739,253,0,1.8,70.2,42
2015-07-23 10:35:00,60,60,60,61,46.5100434710521,4,12,225,0,0,29.74,273,0,1.9,70.2,42
2015-07-23 10:40:00,59.9,59.9,59.9,61,46.4158737538585,5,12,270,0,0,29.739,251,0,1.7,70.2,42
2015-07-23 10:45:00,59.5,59.5,59.5,62,46.4693221892903,5,13,247.5,0,0,29.738,226,0,1.6,70.2,42
2015-07-23 10:50:00,59.5,59.5,59.5,63,46.8933973698622,3,12,270,0,0,29.737,276,0,2.1,70.2,42
2015-07-23 10:55:00,60.3,60.3,60.3,63,47.6496778861891,2,9,315,0,0,29.74,347,0,2.8,70.4,42
2015-07-23 11:00:00,60.6,60.6,60.6,63,47.9332641142317,3,9,247.5,0,0,29.74,371,0.007,3.1,70.6,42
2015-07-23 11:05:00,60.7,60.7,60.7,61,47.169197259812,6,13,202.5,0,0,29.734,433,0,3.8,70.7,42
2015-07-23 11:10:00,60.5,60.5,60.5,62,47.4128493608268,8,16,225,0,0,29.734,511,0,4.2,70.7,42
2015-07-23 11:15:00,60.9,60.9,60.9,61,47.3575159114449,5,13,225,0,0,29.733,404,0,3.2,70.9,42
2015-07-23 11:20:00,61,61,61,59,46.5668114070484,7,14,202.5,0,0,29.733,333,0,2.6,71.1,41
2015-07-23 11:25:00,60.8,60.8,60.8,60,46.8245441913129,7,18,225,0,0,29.734,265,0,2,70.9,41
2015-07-23 11:30:00,60.9,60.9,60.9,60,46.9185164928572,2,7,180,0,0,29.732,249,0,1.8,70.7,41
2015-07-23 11:35:00,60.9,60.9,60.9,60,46.9185164928572,5,11,202.5,0,0,29.735,289,0,2.2,70.7,41
2015-07-23 11:40:00,60.7,60.7,60.7,60,46.730570630226,6,11,225,0,0,29.733,352,0,3,70.7,41
2015-07-23 11:45:00,61.2,61.2,61.2,59,46.7543715667522,5,11,247.5,0,0,29.729,445,0,4.6,70.6,41
2015-07-23 11:50:00,62.1,62.1,62.1,57,46.6824055964493,4,11,202.5,0,0,29.731,438,0,4.2,70.6,41
2015-07-23 11:55:00,62,62,62,56,46.1206048523191,5,13,225,0,0,29.732,328,0,2.6,70.6,41
2015-07-23 12:00:00,61.3,61.3,61.3,58,46.3951987783452,7,19,225,0,0,29.732,223,0.01,1.6,70.7,41
2015-07-23 12:05:00,60.8,60.8,60.8,59,46.379246059313,6,14,202.5,0,0,29.733,217,0,1.5,70.6,41
2015-07-23 12:10:00,60.7,60.7,60.7,60,46.730570630226,5,12,270,0,0,29.73,271,0,2,70.6,41
2015-07-23 12:15:00,61.1,61.1,61.1,60,47.10645731742,5,11,270,0,0,29.732,385,0,3.2,70.6,41
2015-07-23 12:20:00,62,62,62,58,47.0502659046162,4,10,247.5,0,0,29.728,484,0,3.8,70.6,41
2015-07-23 12:25:00,62.2,62.2,62.2,57,46.7757850866455,5,12,270,0,0,29.728,410,0,3.2,70.7,41
2015-07-23 12:30:00,62.2,62.2,62.2,56,46.3069698860689,4,14,225,0,0,29.73,332,0,2.6,70.7,40
2015-07-23 12:35:00,62,62,62,56,46.1206048523191,5,13,270,0,0,29.731,269,0,2,70.7,40
2015-07-23 12:40:00,61.6,61.6,61.6,57,46.2154875510164,4,11,247.5,0,0,29.729,289,0,2.1,70.9,40
2015-07-23 12:45:00,61.6,61.6,61.6,58,46.6759498409296,5,11,202.5,0,0,29.729,319,0,2.3,70.9,40
2015-07-23 12:50:00,61.6,61.6,61.6,58,46.6759498409296,5,11,225,0,0,29.731,334,0,2.6,70.9,40
2015-07-23 12:55:00,61.7,61.7,61.7,58,46.7695308589112,6,15,247.5,0,0,29.729,400,0,4,71.1,40
2015-07-23 13:00:00,61.8,61.8,61.8,58,46.8631105421671,6,16,247.5,0,0,29.731,336,0.009,2.9,71.1,40
2015-07-23 13:05:00,62,62,62,57,46.58902473333,5,21,247.5,0,0,29.728,319,0,2.3,70.9,40
2015-07-23 13:10:00,62,62,62,56,46.1206048523191,5,13,202.5,0,0,29.728,331,0,2.4,70.9,40
2015-07-23 13:15:00,62.5,62.5,62.5,56,46.5865068495746,5,13,202.5,0,0,29.732,474,0,4.1,71.1,40
2015-07-23 13:20:00,64,64,64,54,47.0165385541797,5,13,247.5,0,0,29.728,1157,0,6.3,71.2,40
2015-07-23 13:25:00,64.4,64.4,64.4,53,46.8910821733964,5,15,247.5,0,0,29.724,512,0,4.7,71.2,39
2015-07-23 13:30:00,64.3,64.3,64.3,50,45.2587347002215,7,26,225,0,0,29.724,355,0,3.4,71.4,39
2015-07-23 13:35:00,63.4,63.4,63.4,53,45.9656412650342,6,20,225,0,0,29.724,225,0,1.6,71.4,38
2015-07-23 13:40:00,62.3,62.3,62.3,54,45.4395726725318,7,15,247.5,0,0,29.726,163,0,0.9,71.4,38
2015-07-23 13:45:00,61.9,61.9,61.9,55,45.5517781072661,4,8,202.5,0,0,29.729,215,0,1.2,71.4,38
2015-07-23 13:50:00,61.9,61.9,61.9,56,46.0274202179242,6,18,202.5,0,0,29.73,224,0,1.5,71.2,39
2015-07-23 13:55:00,61.9,61.9,61.9,57,46.4956424972574,3,10,202.5,0,0,29.73,127,0,0.4,71.4,39
2015-07-23 14:00:00,61.8,61.8,61.8,56,45.9342341718064,5,16,225,0,0,29.731,165,0.01,0.9,71.1,39
2015-07-23 14:05:00,61.8,61.8,61.8,56,45.9342341718064,7,13,225,0,0,29.729,260,0,1.7,71.1,39
2015-07-23 14:10:00,61.7,61.7,61.7,57,46.3088739061308,7,16,202.5,0,0,29.731,279,0,1.8,71.2,39
2015-07-23 14:15:00,62.2,62.2,62.2,56,46.3069698860689,6,15,202.5,0,0,29.726,367,0,3,71.4,39
2015-07-23 14:20:00,62.5,62.5,62.5,54,45.6251204226559,7,16,180,0,0,29.726,328,0,2.6,71.6,39
2015-07-23 14:25:00,62.6,62.6,62.6,55,46.202636450172,6,14,225,0,0,29.724,360,0,2.5,71.4,39
2015-07-23 14:30:00,62.8,62.8,62.8,55,46.3885829202611,4,9,270,0,0,29.723,254,0,1.5,71.6,39
2015-07-23 14:35:00,63.2,63.2,63.2,55,46.7604584535976,2,7,180,0,0,29.723,278,0,1.7,71.4,39
2015-07-23 14:40:00,63.2,63.2,63.2,55,46.7604584535976,5,12,247.5,0,0,29.722,334,0,2.7,71.4,39
2015-07-23 14:45:00,63.6,63.6,63.6,54,46.6455264990326,4,12,225,0,0,29.721,364,0,2.5,71.4,39
2015-07-23 14:50:00,63.8,63.8,63.8,54,46.8310355062883,4,11,270,0,0,29.718,387,0,2.6,71.4,39
2015-07-23 14:55:00,63.6,63.6,63.6,54,46.6455264990326,4,9,292.5,0,0,29.713,199,0,1.1,71.4,39
2015-07-23 15:00:00,62.8,62.8,62.8,54,45.9034308706234,5,13,247.5,0,0,29.711,244,0.009,1.4,71.4,39
2015-07-23 15:05:00,62.7,62.7,62.7,54,45.8106622115489,4,12,270,0,0,29.713,258,0,1.6,71.6,39
2015-07-23 15:10:00,62.9,62.9,62.9,54,45.9961980394978,4,11,225,0,0,29.715,295,0,1.7,71.6,38
2015-07-23 15:15:00,62.7,62.7,62.7,53,45.3177415939453,5,15,247.5,0,0,29.712,234,0,1.3,71.8,38
2015-07-23 15:20:00,62.8,62.8,62.8,53,45.4103032804341,3,9,180,0,0,29.712,213,0,1,71.8,38
2015-07-23 15:25:00,63,63,63,53,45.5954220626409,3,11,225,0,0,29.713,261,0,1.3,71.9,38
2015-07-23 15:30:00,63.5,63.5,63.5,54,46.5527697605534,4,11,225,0,0,29.711,581,0,2.5,71.9,38
2015-07-23 15:35:00,65.2,65.2,65.2,52,47.1248779602931,3,11,202.5,0,0,29.712,881,0,3.4,72.1,38
2015-07-23 15:40:00,65.9,65.9,65.9,51,47.2544355583046,4,11,202.5,0,0,29.712,404,0,2.5,72.3,38
2015-07-23 15:45:00,64.9,64.9,64.9,52,46.8479318668441,4,13,270,0,0,29.711,312,0,2.1,72.3,38
2015-07-23 15:50:00,64.1,64.1,64.1,53,46.6134659640703,4,10,247.5,0,0,29.711,305,0,1.6,72.3,38
2015-07-23 15:55:00,63.9,63.9,63.9,53,46.4283808423678,3,10,225,0,0,29.708,303,0,1.4,72.3,38
2015-07-23 16:00:00,63.7,63.7,63.7,53,46.2432896012565,4,10,270,0,0,29.708,330,0.01,1.6,72.3,38
2015-07-23 16:05:00,63.4,63.4,63.4,53,45.9656412650342,5,11,247.5,0,0,29.708,383,0,1.6,72.3,38
2015-07-23 16:10:00,63.2,63.2,63.2,54,46.2744906052797,4,10,225,0,0,29.709,164,0,0.9,72.3,38
2015-07-23 16:15:00,62.7,62.7,62.7,54,45.8106622115489,6,14,225,0,0,29.711,112,0,0.1,72.1,38
2015-07-23 16:20:00,62.3,62.3,62.3,56,46.4001502854879,5,15,202.5,0,0,29.713,226,0,0.5,72.1,38
2015-07-23 16:25:00,62.7,62.7,62.7,55,46.2956104105299,5,15,247.5,0,0,29.713,441,0,1.5,72.1,38
2015-07-23 16:30:00,63.1,63.1,63.1,54,46.1817279067901,4,10,270,0,0,29.714,274,0,1.1,72.3,38
2015-07-23 16:35:00,63.4,63.4,63.4,54,46.4600115321255,5,10,225,0,0,29.714,545,0,1.6,72.3,38
2015-07-23 16:40:00,63.8,63.8,63.8,53,46.3358359867572,6,16,270,0,0,29.713,589,0,1.7,72.3,38
2015-07-23 16:45:00,64,64,64,54,47.0165385541797,3,14,202.5,0,0,29.709,544,0,1.4,72.3,38
2015-07-23 16:50:00,63.5,63.5,63.5,54,46.5527697605534,6,13,247.5,0,0,29.709,276,0,0.9,72.3,38
2015-07-23 16:55:00,63.3,63.3,63.3,54,46.3672518137128,4,11,202.5,0,0,29.703,392,0,1.2,72.3,38
2015-07-23 17:00:00,63.6,63.6,63.6,53,46.1507416858277,5,12,202.5,0,0,29.705,378,0.01,1.1,72.3,38
2015-07-23 17:05:00,63.3,63.3,63.3,52,45.3706473726701,4,10,202.5,0,0,29.702,227,0,0.7,72.3,38
2015-07-23 17:10:00,63.2,63.2,63.2,53,45.7805347240731,4,10,225,0,0,29.703,352,0,0.9,72.3,38
2015-07-23 17:15:00,63.2,63.2,63.2,52,45.2783037432591,3,9,247.5,0,0,29.703,207,0,0.8,72.4,38
2015-07-23 17:20:00,63.1,63.1,63.1,52,45.1859585431929,3,10,157.5,0,0,29.703,247,0,0.6,72.4,37
2015-07-23 17:25:00,62.8,62.8,62.8,53,45.4103032804341,3,14,247.5,0,0,29.704,220,0,0.4,72.6,37
2015-07-23 17:30:00,62.7,62.7,62.7,53,45.3177415939453,4,9,292.5,0,0,29.702,212,0,0.1,72.6,38
2015-07-23 17:35:00,62.3,62.3,62.3,54,45.4395726725318,4,15,202.5,0,0,29.707,167,0,0,72.8,38
2015-07-23 17:40:00,61.9,61.9,61.9,55,45.5517781072661,3,11,180,0,0,29.704,132,0,0,73,38
2015-07-23 17:45:00,61.7,61.7,61.7,56,45.8410467139338,4,11,225,0,0,29.704,132,0,0,73,37
2015-07-23 17:50:00,61.6,61.6,61.6,56,45.7478578442742,5,11,225,0,0,29.705,155,0,0,73.1,38
2015-07-23 17:55:00,61.5,61.5,61.5,55,45.17982713516,5,12,225,0,0,29.705,195,0,0,73.1,38
2015-07-23 18:00:00,61.8,61.8,61.8,52,43.9853279944806,4,10,225,0,0,29.705,211,0.006,0,73.3,37
2015-07-23 18:05:00,61.8,61.8,61.8,51,43.4775069935084,4,11,202.5,0,0,29.705,160,0,0,73.3,36
2015-07-23 18:10:00,61.8,61.8,61.8,51,43.4775069935084,4,9,225,0,0,29.706,148,0,0,73.1,36
2015-07-23 18:15:00,61.7,61.7,61.7,52,43.8929608010343,2,9,270,0,0,29.709,130,0,0,73.1,37
2015-07-23 18:20:00,61.6,61.6,61.6,52,43.8005920363317,3,10,202.5,0,0,29.711,125,0,0,73.3,36
2015-07-23 18:25:00,61.5,61.5,61.5,53,44.2068819812395,3,9,270,0,0,29.708,118,0,0,73.3,36
2015-07-23 18:30:00,61.3,61.3,61.3,53,44.0217172835447,3,11,225,0,0,29.708,134,0,0,73.3,36
2015-07-23 18:35:00,61.1,61.1,61.1,51,42.8323947494465,4,14,247.5,0,0,29.709,110,0,0,73.3,35
2015-07-23 18:40:00,60.8,60.8,60.8,53,43.558778748962,3,12,247.5,0,0,29.709,94,0,0,73.1,36
2015-07-23 18:45:00,60.6,60.6,60.6,54,43.8621760711623,3,8,270,0,0,29.709,78,0,0,73.1,36
2015-07-23 18:50:00,60.4,60.4,60.4,54,43.67657167501,4,11,225,0,0,29.708,72,0,0,73.1,36
2015-07-23 18:55:00,60.3,60.3,60.3,55,44.0638349108619,1,8,247.5,0,0,29.709,48,0,0,73.1,36
2015-07-23 19:00:00,60.1,60.1,60.1,55,43.8778158882118,1,7,225,0,0,29.708,47,0.004,0,73.3,36
2015-07-23 19:05:00,59.9,59.9,59.9,55,43.6917910595225,3,9,247.5,0,0,29.708,48,0,0,73.1,36
2015-07-23 19:10:00,59.8,59.8,59.8,55,43.5987764678282,1,7,247.5,0,0,29.71,37,0,0,73.1,36
2015-07-23 19:15:00,59.7,59.7,59.7,56,43.9770010385428,3,7,202.5,0,0,29.708,41,0,0,73.1,36
2015-07-23 19:20:00,59.7,59.7,59.7,57,44.4408858851612,1,8,270,0,0,29.711,49,0,0,73,36
2015-07-23 19:25:00,59.8,59.8,59.8,58,44.9912632466125,2,7,270,0,0,29.709,45,0,0,73,36
2015-07-23 19:30:00,59.7,59.7,59.7,58,44.8976568634165,2,6,247.5,0,0,29.711,30,0,0,73,37
2015-07-23 19:35:00,59.6,59.6,59.6,59,45.2537450121832,3,8,247.5,0,0,29.712,28,0,0,73,37
2015-07-23 19:40:00,59.5,59.5,59.5,59,45.159944825897,1,8,270,0,0,29.715,26,0,0,73,37
2015-07-23 19:45:00,59.5,59.5,59.5,59,45.159944825897,1,7,247.5,0,0,29.714,26,0,0,73,37
2015-07-23 19:50:00,59.3,59.3,59.3,59,44.9723405610629,1,6,247.5,0,0,29.712,24,0,0,73,37
2015-07-23 19:55:00,59.1,59.1,59.1,60,45.2268223343988,1,4,270,0,0,29.713,20,0,0,73,37
2015-07-23 20:00:00,59,59,59,60,45.1328273572155,2,6,270,0,0,29.715,18,0.002,0,73,37
2015-07-23 20:05:00,59,59,59,61,45.5682912779812,1,4,247.5,0,0,29.715,14,0,0,73,37
2015-07-23 20:10:00,59,59,59,61,45.5682912779812,0,4,0,0,0,29.718,11,0,0,73,38
2015-07-23 20:15:00,59,59,59,61,45.5682912779812,0,2,0,0,0,29.713,10,0,0,73,38
2015-07-23 20:20:00,59,59,59,61,45.5682912779812,2,6,270,0,0,29.717,7,0,0,73,38
2015-07-23 20:25:00,58.6,58.6,58.6,61,45.1915561624904,2,9,292.5,0,0,29.718,3,0,0,73,38
2015-07-23 20:30:00,58.4,58.4,58.4,62,45.4313053217034,0,5,0,0,0,29.72,0,0,0,73,38
2015-07-23 20:35:00,58.1,58.1,58.1,62,45.148184903351,3,7,270,0,0,29.719,0,0,0,72.8,38
2015-07-23 20:40:00,57.8,57.8,57.8,62,44.8650538085677,2,5,270,0,0,29.719,0,0,0,72.8,38
2015-07-23 20:45:00,57.5,57.5,57.5,63,45.002374178234,1,4,270,0,0,29.719,0,0,0,72.6,38
2015-07-23 20:50:00,57.3,57.3,57.3,64,45.2275157922638,1,5,270,0,0,29.72,0,0,0,72.6,38
2015-07-23 20:55:00,57.2,57.2,57.2,64,45.132772395973,2,6,270,0,0,29.718,0,0,0,72.6,38
2015-07-23 21:00:00,57.1,57.1,57.1,65,45.4462844993028,0,4,0,0,0,29.72,0,0.001,0,72.8,38
2015-07-23 21:05:00,56.9,56.9,56.9,65,45.2564411228229,1,5,247.5,0,0,29.721,0,0,0,72.6,38
2015-07-23 21:10:00,56.6,56.6,56.6,65,44.971667970613,0,2,0,0,0,29.72,0,0,0,72.8,39
2015-07-23 21:15:00,56.4,56.4,56.4,66,45.1833642542129,0,2,0,0,0,29.723,0,0,0,72.8,39
2015-07-23 21:20:00,56.3,56.3,56.3,66,45.0882624821571,0,2,0,0,0,29.724,0,0,0,72.8,39
2015-07-23 21:25:00,56.1,56.1,56.1,67,45.2937710422119,0,2,0,0,0,29.724,0,0,0,72.8,39
2015-07-23 21:30:00,55.9,55.9,55.9,67,45.1032185721471,0,1,0,0,0,29.724,0,0,0,72.8,39
2015-07-23 21:35:00,55.8,55.8,55.8,68,45.3979827041816,0,0,0,0,0,29.725,0,0,0,72.8,39
2015-07-23 21:40:00,55.7,55.7,55.7,68,45.3025353037693,0,2,0,0,0,29.727,0,0,0,72.8,39
2015-07-23 21:45:00,55.7,55.7,55.7,68,45.3025353037693,0,0,0,0,0,29.724,0,0,0,72.8,39
2015-07-23 21:50:00,55.7,55.7,55.7,69,45.6873920157233,0,0,0,0,0,29.724,0,0,0,72.8,39
2015-07-23 21:55:00,55.5,55.5,55.5,69,45.496161154908,0,0,0,0,0,29.724,0,0,0,72.8,39